QPF
0.00 0.00 0.00 0.00 0.00 0.00 0.00 0.00 0.00 0.00 0.00 0.00 0.00 0.00 0.00 0.00 0.00 0.00 0.00 0.00 0.00 0.00 0.00 0.00 0.00 0.00 0.00 0.00 0.00 0.00 0.00 0.00 0.00 0.00 0.00 0.00 0.00 0.00 0.00 0.00 0.00 0.00 0.00
0.00 0.00 0.00 0.00 0.00 0.00 0.00 0.00 0.00 0.00 0.00 0.00 0.00 0.00 0.00 0.00 0.00 0.00 0.00 0.00 0.00 0.00 0.01 0.00 0.00 0.01 0.01 0.01 0.01 0.01 0.01 0.00 0.00 0.00 0.00 0.01 0.00 0.00 0.00 0.00 0.00 0.00 0.00
0.00 0.00 0.00 0.00 0.00 0.00 0.00 0.00 0.00 0.00 0.00 0.00 0.00 0.00 0.00 0.00 0.00 0.00 0.01 0.01 0.01 0.00 0.00 0.01 0.00 0.00 0.00 0.01 0.01 0.01 0.01 0.01 0.01 0.01 0.01 0.02 0.01 0.01 0.00 0.00 0.00 0.00 0.00
0.00 0.00 0.00 0.00 0.00 0.00 0.00 0.00 0.00 0.00 0.00 0.00 0.00 0.00 0.00 0.01 0.01 0.01 0.01 0.01 0.00 0.00 0.00 0.00 0.00 0.00 0.00 0.00 0.00 0.01 0.01 0.02 0.02 0.03 0.03 0.03 0.02 0.02 0.01 0.00 0.00 0.00 0.00
0.00 0.00 0.00 0.00 0.00 0.00 0.00 0.00 0.01 0.01 0.01 0.01 0.01 0.01 0.02 0.03 0.03 0.03 0.02 0.02 0.01 0.01 0.00 0.00 0.00 0.00 0.00 0.00 0.00 0.00 0.01 0.02 0.04 0.05 0.05 0.04 0.04 0.03 0.03 0.02 0.01 0.01 0.00
0.00 0.01 0.00 0.00 0.00 0.00 0.00 0.01 0.01 0.01 0.01 0.01 0.01 0.01 0.02 0.03 0.03 0.02 0.02 0.02 0.02 0.01 0.01 0.00 0.00 0.00 0.00 0.00 0.00 0.00 0.00 0.02 0.04 0.06 0.06 0.05 0.05 0.05 0.06 0.04 0.03 0.02 0.01
0.01 0.00 0.00 0.00 0.00 0.01 0.01 0.01 0.01 0.01 0.01 0.00 0.00 0.00 0.01 0.01 0.01 0.01 0.01 0.01 0.01 0.00 0.00 0.00 0.00 0.00 0.00 0.00 0.00 0.00 0.01 0.02 0.05 0.08 0.09 0.09 0.10 0.10 0.10 0.09 0.07 0.05 0.03
0.00 0.00 0.00 0.00 0.00 0.00 0.00 0.00 0.00 0.00 0.00 0.00 0.00 0.00 0.00 0.00 0.00 0.00 0.00 0.00 0.00 0.00 0.00 0.00 0.00 0.00 0.00 0.00 0.00 0.00 0.01 0.02 0.03 0.05 0.10 0.13 0.16 0.19 0.19 0.16 0.12 0.08 0.06
0.00 0.00 0.00 0.00 0.00 0.00 0.00 0.00 0.00 0.00 0.00 0.00 0.00 0.00 0.00 0.00 0.00 0.00 0.00 0.00 0.00 0.00 0.00 0.00 0.00 0.00 0.00 0.00 0.00 0.00 0.01 0.01 0.01 0.02 0.05 0.11 0.13 0.15 0.15 0.16 0.14 0.12 0.09
0.00 0.00 0.00 0.00 0.00 0.00 0.00 0.00 0.00 0.00 0.00 0.00 0.00 0.00 0.00 0.00 0.00 0.00 0.00 0.00 0.00 0.00 0.00 0.00 0.00 0.00 0.00 0.00 0.01 0.01 0.02 0.02 0.01 0.02 0.03 0.06 0.08 0.08 0.08 0.10 0.10 0.10 0.09
0.00 0.00 0.00 0.00 0.00 0.00 0.00 0.00 0.00 0.00 0.00 0.00 0.00 0.00 0.00 0.00 0.00 0.00 0.00 0.00 0.00 0.00 0.00 0.00 0.00 0.00 0.00 0.00 0.01 0.02 0.03 0.02 0.02 0.03 0.03 0.04 0.04 0.04 0.06 0.07 0.08 0.08 0.08
0.00 0.00 0.00 0.00 0.00 0.00 0.00 0.00 0.00 0.00 0.00 0.00 0.00 0.00 0.00 0.00 0.00 0.00 0.01 0.00 0.00 0.00 0.00 0.00 0.00 0.00 0.00 0.00 0.01 0.02 0.02 0.02 0.02 0.02 0.03 0.03 0.04 0.04 0.04 0.05 0.05 0.06 0.06
0.00 0.00 0.00 0.00 0.00 0.00 0.00 0.00 0.00 0.00 0.00 0.00 0.00 0.00 0.00 0.00 0.00 0.00 0.01 0.01 0.01 0.00 0.00 0.00 0.00 0.00 0.00 0.00 0.00 0.00 0.01 0.01 0.02 0.02 0.02 0.02 0.02 0.02 0.01 0.01 0.02 0.03 0.05
0.00 0.00 0.00 0.00 0.00 0.00 0.00 0.00 0.00 0.00 0.00 0.00 0.00 0.00 0.00 0.00 0.00 0.00 0.01 0.01 0.01 0.00 0.00 0.00 0.00 0.00 0.00 0.00 0.00 0.00 0.00 0.01 0.02 0.02 0.01 0.01 0.01 0.01 0.00 0.00 0.00 0.01 0.01
0.00 0.00 0.00 0.00 0.00 0.00 0.00 0.00 0.00 0.00 0.00 0.00 0.00 0.00 0.00 0.00 0.00 0.00 0.00 0.00 0.02 0.02 0.01 0.00 0.00 0.00 0.00 0.00 0.00 0.01 0.01 0.01 0.02 0.02 0.02 0.01 0.01 0.00 0.00 0.00 0.00 0.00 0.00
0.00 0.00 0.00 0.00 0.00 0.00 0.00 0.00 0.00 0.00 0.00 0.00 0.00 0.00 0.00 0.00 0.00 0.00 0.00 0.00 0.01 0.03 0.03 0.01 0.00 0.00 0.00 0.00 0.01 0.01 0.01 0.01 0.02 0.03 0.02 0.02 0.01 0.00 0.00 0.00 0.00 0.00 0.00
0.00 0.00 0.00 0.00 0.00 0.00 0.00 0.00 0.00 0.00 0.00 0.00 0.00 0.00 0.00 0.00 0.00 0.00 0.00 0.00 0.01 0.02 0.04 0.02 0.01 0.00 0.00 0.00 0.00 0.00 0.00 0.01 0.02 0.03 0.03 0.02 0.01 0.00 0.00 0.00 0.00 0.00 0.00
0.00 0.00 0.00 0.00 0.00 0.00 0.00 0.00 0.00 0.00 0.00 0.00 0.00 0.00 0.00 0.00 0.00 0.00 0.01 0.01 0.01 0.02 0.05 0.05 0.02 0.01 0.00 0.00 0.00 0.00 0.00 0.01 0.02 0.05 0.04 0.02 0.02 0.01 0.00 0.00 0.00 0.00 0.00
0.00 0.00 0.00 0.00 0.00 0.00 0.00 0.00 0.00 0.00 0.00 0.00 0.00 0.00 0.00 0.00 0.00 0.01 0.01 0.02 0.02 0.03 0.05 0.04 0.02 0.00 0.00 0.00 0.00 0.00 0.01 0.01 0.02 0.03 0.02 0.02 0.01 0.00 0.00 0.00 0.00 0.00 0.00
0.00 0.00 0.00 0.00 0.00 0.00 0.00 0.00 0.00 0.00 0.00 0.00 0.00 0.00 0.00 0.00 0.00 0.01 0.02 0.03 0.04 0.03 0.02 0.01 0.01 0.00 0.00 0.00 0.00 0.01 0.02 0.02 0.01 0.01 0.01 0.00 0.00 0.00 0.00 0.01 0.01 0.01 0.00
0.00 0.00 0.00 0.00 0.00 0.00 0.00 0.00 0.00 0.00 0.00 0.00 0.00 0.00 0.00 0.00 0.01 0.04 0.04 0.03 0.02 0.01 0.01 0.01 0.01 0.01 0.00 0.01 0.01 0.02 0.04 0.03 0.02 0.01 0.01 0.00 0.00 0.01 0.04 0.07 0.07 0.04 0.02
0.00 0.00 0.00 0.00 0.00 0.00 0.00 0.00 0.00 0.00 0.00 0.00 0.00 0.00 0.00 0.00 0.01 0.02 0.02 0.01 0.01 0.01 0.01 0.02 0.02 0.01 0.01 0.02 0.03 0.05 0.06 0.04 0.03 0.01 0.01 0.00 0.02 0.07 0.14 0.15 0.15 0.08 0.03
0.00 0.00 0.00 0.00 0.00 0.00 0.00 0.00 0.00 0.00 0.00 0.00 0.00 0.00 0.00 0.00 0.00 0.00 0.00 0.00 0.00 0.00 0.02 0.06 0.08 0.05 0.03 0.04 0.05 0.05 0.04 0.03 0.03 0.02 0.01 0.01 0.05 0.13 0.19 0.21 0.26 0.13 0.05
0.00 0.00 0.00 0.00 0.00 0.00 0.00 0.00 0.00 0.00 0.00 0.00 0.00 0.00 0.00 0.00 0.00 0.00 0.00 0.00 0.00 0.01 0.04 0.08 0.10 0.08 0.07 0.06 0.05 0.05 0.04 0.03 0.02 0.01 0.01 0.02 0.06 0.12 0.18 0.25 0.38 0.32 0.16
0.00 0.00 0.00 0.00 0.00 0.00 0.00 0.00 0.00 0.00 0.00 0.00 0.00 0.00 0.00 0.00 0.01 0.01 0.01 0.00 0.00 0.02 0.07 0.12 0.13 0.11 0.08 0.06 0.04 0.04 0.03 0.03 0.03 0.02 0.01 0.03 0.07 0.13 0.24 0.36 0.39 0.42 0.30
0.00 0.00 0.00 0.00 0.00 0.00 0.00 0.00 0.00 0.00 0.00 0.00 0.00 0.00 0.00 0.01 0.01 0.01 0.01 0.01 0.02 0.05 0.13 0.19 0.18 0.11 0.07 0.05 0.05 0.04 0.04 0.06 0.07 0.05 0.02 0.02 0.06 0.14 0.26 0.40 0.37 0.27 0.26
MSLP
1017.63 1017.64 1017.61 1017.57 1017.54 1017.55 1017.61 1017.69 1017.78 1017.85 1017.87 1017.84 1017.75 1017.64 1017.51 1017.40 1017.31 1017.26 1017.23 1017.20 1017.16 1017.10 1016.99 1016.86 1016.71 1016.57 1016.45 1016.38 1016.35 1016.37 1016.42 1016.49 1016.58 1016.67 1016.78 1016.88 1017.00 1017.11 1017.22 1017.32 1017.39 1017.43 1017.44
1017.69 1017.70 1017.67 1017.63 1017.61 1017.63 1017.68 1017.76 1017.84 1017.90 1017.92 1017.89 1017.81 1017.71 1017.60 1017.51 1017.43 1017.39 1017.37 1017.35 1017.31 1017.24 1017.13 1016.98 1016.81 1016.62 1016.43 1016.28 1016.15 1016.07 1016.03 1016.03 1016.06 1016.13 1016.23 1016.36 1016.51 1016.67 1016.82 1016.96 1017.07 1017.14 1017.18
1017.78 1017.79 1017.78 1017.76 1017.77 1017.80 1017.85 1017.92 1017.98 1018.01 1018.01 1017.98 1017.90 1017.82 1017.72 1017.65 1017.59 1017.56 1017.54 1017.52 1017.48 1017.40 1017.27 1017.10 1016.89 1016.65 1016.40 1016.15 1015.93 1015.73 1015.58 1015.49 1015.44 1015.46 1015.54 1015.67 1015.85 1016.05 1016.27 1016.48 1016.66 1016.80 1016.90
1017.91 1017.94 1017.96 1017.99 1018.02 1018.07 1018.12 1018.17 1018.20 1018.20 1018.17 1018.11 1018.03 1017.94 1017.86 1017.79 1017.74 1017.71 1017.69 1017.66 1017.59 1017.50 1017.35 1017.15 1016.90 1016.62 1016.30 1015.98 1015.66 1015.37 1015.11 1014.91 1014.78 1014.74 1014.77 1014.89 1015.08 1015.32 1015.59 1015.88 1016.14 1016.38 1016.59
1018.12 1018.18 1018.24 1018.31 1018.38 1018.44 1018.49 1018.51 1018.50 1018.45 1018.38 1018.28 1018.18 1018.09 1018.00 1017.94 1017.88 1017.84 1017.79 1017.72 1017.62 1017.49 1017.31 1017.08 1016.80 1016.48 1016.13 1015.76 1015.38 1015.00 1014.66 1014.37 1014.16 1014.04 1014.02 1014.10 1014.28 1014.54 1014.85 1015.20 1015.55 1015.88 1016.19
1018.41 1018.50 1018.61 1018.72 1018.81 1018.89 1018.92 1018.90 1018.85 1018.75 1018.63 1018.50 1018.37 1018.25 1018.16 1018.07 1018.00 1017.92 1017.82 1017.70 1017.55 1017.36 1017.14 1016.88 1016.58 1016.25 1015.89 1015.50 1015.09 1014.67 1014.28 1013.92 1013.63 1013.44 1013.35 1013.38 1013.52 1013.77 1014.09 1014.47 1014.88 1015.29 1015.68
1018.79 1018.90 1019.04 1019.18 1019.29 1019.36 1019.38 1019.33 1019.22 1019.08 1018.91 1018.74 1018.59 1018.46 1018.34 1018.23 1018.11 1017.97 1017.81 1017.61 1017.38 1017.12 1016.85 1016.56 1016.25 1015.93 1015.58 1015.21 1014.82 1014.40 1013.98 1013.59 1013.25 1012.98 1012.82 1012.78 1012.86 1013.06 1013.35 1013.73 1014.15 1014.59 1015.04
1019.22 1019.35 1019.50 1019.65 1019.77 1019.83 1019.83 1019.74 1019.60 1019.42 1019.22 1019.03 1018.86 1018.70 1018.56 1018.41 1018.24 1018.03 1017.78 1017.48 1017.16 1016.82 1016.49 1016.17 1015.86 1015.56 1015.25 1014.92 1014.57 1014.18 1013.77 1013.37 1012.98 1012.66 1012.43 1012.31 1012.31 1012.43 1012.66 1012.99 1013.38 1013.82 1014.27
1019.70 1019.81 1019.96 1020.10 1020.21 1020.26 1020.23 1020.12 1019.95 1019.75 1019.54 1019.34 1019.16 1019.00 1018.84 1018.65 1018.41 1018.12 1017.77 1017.36 1016.94 1016.51 1016.11 1015.75 1015.43 1015.16 1014.90 1014.62 1014.32 1013.98 1013.60 1013.20 1012.79 1012.43 1012.14 1011.94 1011.85 1011.88 1012.03 1012.28 1012.61 1013.00 1013.43
1020.17 1020.26 1020.37 1020.49 1020.58 1020.60 1020.55 1020.42 1020.25 1020.05 1019.84 1019.66 1019.49 1019.32 1019.14 1018.91 1018.62 1018.24 1017.78 1017.27 1016.74 1016.22 1015.75 1015.35 1015.02 1014.76 1014.53 1014.30 1014.05 1013.75 1013.40 1013.01 1012.60 1012.20 1011.86 1011.60 1011.44 1011.40 1011.46 1011.63 1011.89 1012.21 1012.59
1020.59 1020.64 1020.71 1020.79 1020.84 1020.83 1020.76 1020.63 1020.46 1020.27 1020.09 1019.93 1019.78 1019.62 1019.43 1019.17 1018.82 1018.36 1017.82 1017.21 1016.58 1015.97 1015.43 1014.98 1014.63 1014.36 1014.14 1013.94 1013.72 1013.45 1013.11 1012.73 1012.32 1011.91 1011.55 1011.26 1011.06 1010.96 1010.97 1011.08 1011.27 1011.53 1011.85
1020.93 1020.92 1020.94 1020.97 1020.98 1020.94 1020.85 1020.71 1020.56 1020.39 1020.24 1020.11 1019.98 1019.84 1019.64 1019.36 1018.96 1018.44 1017.82 1017.14 1016.43 1015.76 1015.15 1014.66 1014.27 1013.97 1013.74 1013.53 1013.30 1013.03 1012.70 1012.33 1011.93 1011.53 1011.17 1010.88 1010.68 1010.58 1010.57 1010.65 1010.81 1011.03 1011.30
1021.13 1021.07 1021.04 1021.02 1020.98 1020.91 1020.80 1020.67 1020.52 1020.38 1020.26 1020.15 1020.05 1019.91 1019.71 1019.41 1018.98 1018.42 1017.76 1017.02 1016.27 1015.55 1014.90 1014.35 1013.92 1013.58 1013.31 1013.06 1012.81 1012.52 1012.18 1011.81 1011.42 1011.06 1010.74 1010.49 1010.33 1010.26 1010.28 1010.37 1010.53 1010.74 1010.98
1021.19 1021.08 1021.00 1020.93 1020.85 1020.75 1020.62 1020.49 1020.35 1020.22 1020.12 1020.03 1019.93 1019.79 1019.59 1019.27 1018.83 1018.26 1017.58 1016.83 1016.05 1015.31 1014.63 1014.05 1013.58 1013.19 1012.86 1012.56 1012.26 1011.94 1011.59 1011.22 1010.87 1010.55 1010.30 1010.12 1010.03 1010.03 1010.10 1010.24 1010.41 1010.62 1010.86
1021.09 1020.95 1020.83 1020.72 1020.61 1020.48 1020.34 1020.20 1020.06 1019.94 1019.83 1019.74 1019.63 1019.49 1019.27 1018.95 1018.50 1017.93 1017.26 1016.52 1015.75 1015.01 1014.33 1013.73 1013.22 1012.78 1012.40 1012.04 1011.69 1011.34 1010.98 1010.64 1010.33 1010.08 1009.90 1009.81 1009.81 1009.88 1010.01 1010.19 1010.38 1010.60 1010.82
1020.86 1020.70 1020.56 1020.43 1020.30 1020.15 1020.00 1019.85 1019.70 1019.56 1019.44 1019.32 1019.19 1019.02 1018.78 1018.45 1018.00 1017.45 1016.80 1016.09 1015.36 1014.64 1013.97 1013.36 1012.82 1012.35 1011.92 1011.52 1011.14 1010.78 1010.43 1010.13 1009.88 1009.70 1009.61 1009.59 1009.66 1009.78 1009.94 1010.12 1010.31 1010.50 1010.70
1020.53 1020.37 1020.22 1020.09 1019.95 1019.80 1019.64 1019.47 1019.30 1019.14 1018.99 1018.83 1018.66 1018.46 1018.19 1017.84 1017.39 1016.85 1016.24 1015.56 1014.87 1014.18 1013.53 1012.92 1012.37 1011.87 1011.42 1011.00 1010.62 1010.27 1009.97 1009.72 1009.54 1009.44 1009.41 1009.45 1009.54 1009.65 1009.78 1009.91 1010.04 1010.16 1010.30
1020.16 1020.01 1019.88 1019.75 1019.62 1019.47 1019.31 1019.13 1018.94 1018.74 1018.54 1018.34 1018.11 1017.86 1017.55 1017.18 1016.73 1016.20 1015.61 1014.97 1014.31 1013.65 1013.01 1012.41 1011.85 1011.35 1010.89 1010.48 1010.12 1009.82 1009.58 1009.41 1009.31 1009.27 1009.28 1009.33 1009.38 1009.43 1009.45 1009.45 1009.44 1009.44 1009.47
1019.79 1019.67 1019.56 1019.46 1019.34 1019.21 1019.04 1018.84 1018.62 1018.38 1018.14 1017.87 1017.59 1017.28 1016.94 1016.53 1016.07 1015.54 1014.96 1014.33 1013.69 1013.04 1012.41 1011.81 1011.25 1010.74 1010.30 1009.92 1009.62 1009.39 1009.24 1009.15 1009.13 1009.14 1009.17 1009.17 1009.14 1009.04 1008.89 1008.69 1008.47 1008.27 1008.15
1019.48 1019.39 1019.31 1019.24 1019.14 1019.01 1018.84 1018.62 1018.37 1018.09 1017.79 1017.46 1017.12 1016.76 1016.36 1015.92 1015.43 1014.89 1014.30 1013.67 1013.03 1012.38 1011.73 1011.12 1010.56 1010.06 1009.64 1009.31 1009.08 1008.94 1008.88 1008.89 1008.94 1009.00 1009.01 1008.94 1008.77 1008.49 1008.10 1007.64 1007.17 1006.75 1006.44
1019.26 1019.20 1019.15 1019.10 1019.01 1018.88 1018.69 1018.45 1018.16 1017.83 1017.47 1017.09 1016.69 1016.26 1015.81 1015.33 1014.81 1014.25 1013.64 1013.00 1012.33 1011.66 1010.99 1010.36 1009.79 1009.30 1008.91 1008.64 1008.48 1008.44 1008.49 1008.60 1008.72 1008.79 1008.78 1008.62 1008.30 1007.81 1007.17 1006.45 1005.71 1005.04 1004.54
1019.15 1019.12 1019.09 1019.04 1018.95 1018.80 1018.59 1018.31 1017.97 1017.59 1017.17 1016.72 1016.25 1015.77 1015.27 1014.75 1014.19 1013.60 1012.97 1012.30 1011.61 1010.91 1010.22 1009.57 1009.00 1008.52 1008.16 1007.94 1007.86 1007.91 1008.06 1008.26 1008.44 1008.54 1008.49 1008.25 1007.79 1007.12 1006.26 1005.30 1004.32 1003.44 1002.76
1019.17 1019.15 1019.11 1019.05 1018.94 1018.76 1018.50 1018.17 1017.77 1017.32 1016.82 1016.31 1015.78 1015.24 1014.69 1014.13 1013.54 1012.92 1012.26 1011.58 1010.87 1010.15 1009.45 1008.80 1008.23 1007.77 1007.45 1007.28 1007.28 1007.41 1007.64 1007.91 1008.15 1008.27 1008.22 1007.92 1007.37 1006.57 1005.56 1004.42 1003.28 1002.24 1001.44
1019.32 1019.28 1019.23 1019.13 1018.97 1018.74 1018.41 1018.01 1017.53 1017.00 1016.43 1015.84 1015.25 1014.65 1014.05 1013.44 1012.83 1012.19 1011.53 1010.85 1010.14 1009.44 1008.75 1008.11 1007.57 1007.14 1006.87 1006.76 1006.81 1007.01 1007.30 1007.64 1007.92 1008.08 1008.03 1007.73 1007.15 1006.30 1005.23 1004.04 1002.83 1001.73 1000.87
1019.57 1019.51 1019.42 1019.27 1019.04 1018.73 1018.32 1017.83 1017.26 1016.65 1015.99 1015.32 1014.66 1013.99 1013.35 1012.71 1012.07 1011.44 1010.79 1010.13 1009.46 1008.80 1008.17 1007.59 1007.10 1006.73 1006.51 1006.46 1006.56 1006.80 1007.14 1007.51 1007.83 1008.03 1008.02 1007.76 1007.22 1006.42 1005.40 1004.25 1003.09 1002.03 1001.19
1019.91 1019.81 1019.66 1019.44 1019.13 1018.73 1018.24 1017.65 1016.99 1016.28 1015.54 1014.79 1014.05 1013.32 1012.63 1011.96 1011.32 1010.69 1010.08 1009.48 1008.88 1008.31 1007.77 1007.29 1006.89 1006.60 1006.45 1006.44 1006.59 1006.86 1007.21 1007.60 1007.94 1008.17 1008.22 1008.04 1007.60 1006.93 1006.05 1005.06 1004.04 1003.11 1002.38
Thickness
5690 5687 5684 5681 5678 5675 5673 5670 5668 5667 5665 5663 5662 5660 5658 5656 5654 5653 5652 5652 5652 5651 5652 5652 5652 5653 5653 5654 5655 5656 5656 5656 5657 5657 5657 5658 5659 5659 5660 5662 5663 5665 5666
5685 5682 5679 5676 5673 5670 5667 5664 5662 5659 5657 5654 5652 5650 5647 5645 5643 5642 5640 5639 5638 5637 5637 5638 5639 5641 5642 5643 5645 5646 5647 5648 5649 5649 5650 5650 5651 5651 5653 5654 5656 5658 5659
5680 5676 5673 5669 5666 5664 5661 5658 5655 5652 5649 5645 5642 5640 5637 5634 5631 5629 5627 5625 5624 5623 5622 5623 5625 5627 5629 5631 5634 5636 5638 5639 5641 5642 5642 5643 5643 5643 5643 5645 5647 5650 5652
5673 5669 5665 5661 5659 5656 5653 5650 5646 5643 5639 5635 5632 5629 5625 5622 5619 5616 5613 5611 5609 5608 5607 5607 5608 5610 5612 5615 5619 5623 5627 5629 5631 5633 5635 5635 5635 5635 5635 5635 5637 5639 5641
5665 5661 5656 5652 5649 5646 5642 5639 5634 5630 5626 5622 5620 5617 5612 5608 5604 5602 5598 5596 5594 5593 5592 5591 5591 5592 5594 5597 5601 5606 5611 5616 5619 5622 5625 5626 5627 5627 5628 5627 5627 5628 5629
5655 5650 5645 5640 5636 5631 5627 5623 5618 5614 5609 5606 5605 5601 5597 5593 5589 5586 5583 5580 5579 5577 5576 5575 5575 5574 5576 5578 5582 5587 5593 5598 5603 5608 5612 5615 5617 5618 5618 5619 5618 5618 5618
5643 5637 5631 5626 5621 5616 5610 5606 5602 5597 5593 5589 5586 5584 5582 5578 5575 5572 5568 5566 5564 5562 5561 5560 5559 5559 5559 5561 5564 5569 5574 5579 5584 5589 5593 5598 5603 5605 5606 5607 5608 5608 5608
5629 5623 5617 5611 5606 5600 5595 5590 5585 5580 5575 5571 5567 5564 5564 5563 5561 5559 5556 5554 5551 5548 5546 5545 5543 5543 5544 5545 5547 5551 5556 5561 5565 5570 5574 5579 5584 5588 5590 5592 5594 5596 5597
5614 5608 5603 5597 5592 5586 5580 5574 5568 5562 5557 5553 5548 5545 5544 5546 5545 5547 5545 5543 5539 5536 5534 5532 5532 5531 5531 5531 5532 5536 5540 5544 5548 5552 5556 5559 5564 5569 5573 5576 5578 5582 5584
5601 5595 5589 5583 5577 5571 5564 5557 5550 5544 5539 5534 5531 5529 5527 5527 5526 5531 5533 5531 5527 5525 5523 5522 5520 5520 5520 5520 5522 5524 5528 5531 5535 5538 5540 5542 5544 5549 5554 5559 5563 5568 5571
5586 5580 5573 5566 5560 5553 5546 5539 5533 5527 5522 5518 5516 5515 5514 5513 5511 5511 5517 5518 5515 5512 5511 5509 5509 5508 5508 5508 5509 5512 5516 5519 5522 5524 5526 5527 5528 5532 5537 5543 5549 5556 5560
5571 5564 5557 5550 5543 5536 5530 5524 5518 5513 5509 5506 5503 5501 5500 5499 5499 5497 5501 5504 5503 5501 5498 5496 5496 5498 5498 5498 5499 5501 5504 5507 5510 5512 5514 5515 5517 5519 5524 5530 5538 5544 5550
5557 5550 5542 5535 5528 5521 5515 5510 5506 5502 5499 5496 5493 5491 5488 5486 5485 5485 5485 5488 5489 5490 5487 5485 5484 5485 5486 5487 5488 5489 5492 5496 5499 5502 5504 5505 5507 5510 5515 5521 5527 5533 5540
5545 5538 5530 5523 5515 5508 5503 5499 5496 5492 5489 5487 5485 5481 5478 5475 5472 5470 5469 5469 5474 5478 5476 5475 5473 5473 5474 5475 5476 5478 5481 5485 5489 5492 5495 5498 5500 5503 5507 5512 5517 5522 5528
5534 5527 5519 5511 5504 5498 5494 5490 5487 5484 5481 5477 5474 5470 5466 5463 5460 5457 5454 5452 5453 5460 5465 5464 5463 5463 5463 5464 5467 5469 5472 5476 5480 5485 5488 5492 5494 5497 5499 5502 5506 5510 5515
5523 5515 5508 5501 5495 5490 5486 5482 5478 5475 5470 5467 5462 5458 5454 5450 5447 5444 5441 5439 5438 5441 5448 5453 5452 5452 5452 5455 5458 5461 5464 5468 5473 5478 5483 5487 5490 5491 5492 5494 5497 5500 5503
5511 5504 5497 5491 5486 5482 5478 5473 5468 5464 5459 5454 5449 5444 5441 5437 5435 5432 5430 5429 5429 5430 5436 5443 5442 5444 5444 5446 5450 5453 5457 5461 5467 5472 5477 5482 5483 5484 5485 5487 5489 5491 5494
5500 5493 5487 5482 5478 5474 5470 5464 5459 5454 5447 5441 5436 5430 5427 5425 5422 5421 5421 5422 5424 5424 5427 5433 5436 5436 5437 5440 5444 5447 5452 5457 5462 5466 5469 5472 5474 5475 5477 5479 5481 5483 5486
5490 5485 5478 5473 5469 5465 5460 5454 5447 5441 5433 5427 5421 5416 5414 5412 5411 5411 5412 5415 5418 5420 5421 5423 5428 5430 5433 5436 5440 5445 5449 5453 5456 5459 5462 5464 5466 5467 5469 5471 5473 5476 5479
5482 5477 5471 5465 5460 5455 5449 5442 5434 5426 5419 5413 5407 5403 5401 5400 5401 5403 5406 5410 5413 5415 5415 5417 5422 5427 5432 5437 5439 5444 5449 5450 5452 5454 5456 5457 5458 5460 5462 5465 5469 5472 5476
5476 5470 5463 5457 5450 5442 5435 5427 5420 5413 5406 5401 5397 5393 5392 5393 5395 5398 5402 5406 5407 5409 5411 5414 5420 5427 5433 5437 5441 5445 5448 5447 5447 5448 5449 5451 5453 5455 5457 5461 5465 5470 5475
5469 5461 5454 5446 5437 5429 5421 5413 5406 5400 5394 5391 5389 5387 5386 5387 5390 5393 5397 5401 5402 5405 5409 5412 5419 5426 5434 5439 5443 5446 5445 5444 5445 5444 5444 5446 5448 5450 5452 5456 5462 5472 5485
5459 5451 5442 5433 5424 5415 5408 5401 5395 5389 5385 5383 5382 5381 5382 5384 5386 5389 5394 5398 5401 5403 5408 5413 5421 5430 5438 5443 5446 5447 5445 5445 5444 5441 5440 5443 5444 5445 5449 5455 5465 5483 5500
5445 5436 5428 5419 5411 5404 5397 5390 5385 5380 5378 5378 5378 5379 5380 5383 5386 5389 5393 5398 5402 5408 5413 5419 5427 5437 5443 5447 5448 5448 5446 5441 5439 5438 5437 5438 5439 5441 5445 5451 5463 5481 5497
5429 5421 5413 5406 5398 5392 5385 5380 5377 5375 5375 5377 5378 5381 5382 5384 5388 5390 5393 5399 5405 5413 5420 5427 5435 5443 5447 5448 5448 5446 5443 5442 5440 5437 5435 5435 5435 5436 5439 5444 5456 5471 5485
5414 5407 5400 5393 5387 5381 5377 5373 5371 5371 5372 5375 5378 5381 5384 5386 5389 5391 5395 5399 5406 5416 5423 5431 5437 5442 5444 5444 5444 5445 5444 5442 5440 5438 5435 5434 5434 5433 5435 5436 5445 5458 5470